This demonstration page uses our WeatherBlox Daily Observations layout. Learn more.

Left ArrowRight Arrow

Hourly Observations for May 31, 2016

Temp ( °F °C ) Dew Point ( °F °C ) Humidity (%) Winds ( mph kmh ) Pressure ( in mb ) Visibility ( mi km ) Precip ( " mm )
12:53 am 00:53 Clear 64 17.8 61 16.1 90 90 N N/A 29.98 1015 10 16 N/A
1:53 am 01:53 Clear 66 18.9 62 16.7 87 87 N N/A 29.98 1015 10 16 N/A
2:53 am 02:53 Mostly Clear 63 17.2 60 15.6 90 90 N N/A 29.97 1015 10 16 N/A
3:53 am 03:53 Cloudy 63 17.2 61 16.1 93 93 N N/A 29.97 1015 10 16 N/A
4:53 am 04:53 Clear 61 16.1 59 15 93 93 N N/A 29.97 1015 10 16 N/A
5:53 am 05:53 Clear 60 15.6 59 15 96 96 N N/A 29.98 1015 10 16 N/A
6:53 am 06:53 Sunny 61 16.1 60 15.6 97 97 N N/A 29.99 1016 8 13 N/A
7:53 am 07:53 Sunny 67 19.4 63 17.2 87 87 N N/A 30.00 1016 10 16 N/A
8:53 am 08:53 Sunny 73 22.8 63 17.2 71 71 N N/A 30.01 1016 10 16 N/A
9:53 am 09:53 Sunny 78 25.6 61 16.1 56 56 N N/A 30.01 1016 10 16 N/A
10:53 am 10:53 Sunny 82 27.8 61 16.1 49 49 N N/A 30.00 1016 10 16 N/A
11:53 am 11:53 Sunny 85 29.4 60 15.6 43 43 N N/A 30.00 1016 10 16 N/A
12:53 pm 12:53 Sunny 87 30.6 60 15.6 40 40 N N/A 29.99 1016 10 16 N/A
1:53 pm 13:53 Cloudy 82 27.8 70 21.1 67 67 SSW 3 6 29.98 1015 10 16 N/A
2:53 pm 14:53 Mostly Sunny 87 30.6 60 15.6 40 40 N N/A 29.96 1015 10 16 N/A
3:53 pm 15:53 Mostly Sunny 89 31.7 57 13.9 34 34 N N/A 29.96 1014 10 16 N/A
4:53 pm 16:53 Sunny 89 31.7 58 14.4 35 35 E 6 9 29.95 1014 10 16 N/A
5:53 pm 17:53 Mostly Sunny 86 30 58 14.4 39 39 N N/A 29.93 1014 10 16 N/A
6:53 pm 18:53 Sunny 84 28.9 61 16.1 46 46 S 3 6 29.93 1013 10 16 N/A
7:53 pm 19:53 Sunny 81 27.2 63 17.2 54 54 N N/A 29.93 1014 10 16 N/A
8:53 pm 20:53 Sunny 75 23.9 65 18.3 71 71 N N/A 29.94 1014 10 16 N/A
9:53 pm 21:53 Clear 70 21.1 63 17.2 79 79 N N/A 29.95 1014 10 16 N/A
10:53 pm 22:53 Clear 67 19.4 63 17.2 87 87 N N/A 29.97 1015 10 16 N/A
11:53 pm 23:53 Clear 66 18.9 62 16.7 87 87 N N/A 29.98 1015 10 16 N/A

Powered by AerisWeather